Regional Weather Roundup
Issued by NWS Newport/Morehead, NC

Current Version | Previous Version | Text Only | Print | Product List | Glossary Off
Versions: 1 2 3 4 5 6 7 8 9 10 11 12 13 14 15 16 17 18 19 20 21 22 23 24 25 26 27 28 29 30 31 32 33 34 35 36 37 38 39 40 41 42 43 44 45 46 47 48 49 50
000 ASUS42 KMHX 250914 RWRMHX WEATHER ROUNDUP FOR EASTERN NORTH CAROLINA NATIONAL WEATHER SERVICE NEWPORT/MOREHEAD CITY NC 500 AM EDT TUE JUL 25 2017 NOTE: "FAIR" INDICATES FEW OR NO CLOUDS BELOW 12,000 FEET WITH NO SIGNIFICANT WEATHER AND/OR OBSTRUCTIONS TO VISIBILITY NCZ015>017-031-032-045>047-102-103-251000- NORTH COAST CITY SKY/WX TMP DP RH WIND PRES REMARKS EDENTON PTCLDY 81 76 86 CALM 29.97R ELIZABETH CITY PTCLDY 78 77 96 SW9 29.95R KITTY HAWK MOSUNNY 79 76 91 SW8 29.95R MANTEO MOCLDY 79 77 94 W6 29.96S $$ NCZ045>047-081-094-103-104-251000- CENTRAL COAST CITY SKY/WX TMP DP RH WIND PRES REMARKS FRISCO CLOUDY 77 75 93 W8 29.98R $$ NCZ095-097-098-100-101-251000- SOUTHERN COAST CITY SKY/WX TMP DP RH WIND PRES REMARKS BEAUFORT CLEAR 80 75 84 W8 30.00R CEDAR ISLAND NOT AVBL JACKSONVILLE CLOUDY 75 73 93 W7 30.00S PINEY ISLAND CLOUDY N/A N/A N/A SW10 29.99R WILMINGTON PTCLDY 76 75 97 W5 30.01S $$ NCZ011>013-027>030-043-044-078>080-089-090>093-098-251000- COASTAL PLAIN CITY SKY/WX TMP DP RH WIND PRES REMARKS AHOSKIE N/A 73 73 99 CALM 29.97R FOG CLINTON PTCLDY 73 73 100 CALM 30.01S ELIZABETHTOWN NOT AVBL GOLDSBORO CLEAR 75 75 100 SW7 29.98R GREENVILLE CLEAR 77 75 94 SW6 30.00R HAVELOCK PTCLDY 77 71 82 W9 30.01R KENANSVILLE CLOUDY 73 72 94 SW5 30.00F KINSTON MOCLDY 75 72 88 SW7 30.00R NEW BERN CLOUDY 75 72 90 SW8 30.01R RICHLANDS PTCLDY 73 72 96 SW3 30.02R ROCKY MOUNT MOCLDY 75 75 100 SW3 29.99R FOG WASHINGTON CLEAR 76 74 92 SW7 29.98S WHITEVILLE CLOUDY 73 72 94 CALM 30.01R $$ AMZ130-135-150-152-154-156-158-170-250-252-270-ANZ085-086-088-633-658-670-251000- MARINE OBSERVATIONS STATION/POSITION TIME TEMP WIND PRES WAVE SWELL AIR SEA DIR/SP/G HT/PER HT/PER (UTC) (F) (DEG/KT/KT) (MB) (FT/S) (FT/S) CHESAPEAKE LIGHT NOT AVBL 64 E VA BEACH 0850 79 78 230/ 10/ 12 1014.0 4/ 6 3/ 6 DUCK 0848 81 65 240/ 12/ 15 1013.6 2 E DUCK 0900 71 N/A 2/11 OREGON INLET 0848 240/ 11/ 13 N/A 13E OREGON INLT 0848 69 N/A 4/ 6 3/ 6 HATTERAS CG 0848 77 78 240/ 7/ 10 1015.1 DIAMOND BUOY 0850 82 84 250/ 19/ 23 1015.0 6/ 6 2/11 CAPE LOOKOUT 0900 79 260/ 11/ 13 1015.6 BEAUFORT LAB 0848 79 80 250/ 5/ 7 1015.3 30 SE NEW RVR IN 0808 81 83 260/ 12/ 16 1015.9 30 SE NEW RVR IN 0843 83 N/A 5/ 7 27 SE WRIGHTSVLE 0808 81 83 240/ 14/ 19 1015.7 5 SE WRIGHTSVLE 0808 80 81 240/ 10/ 16 1015.8 225 S CAPE HAT 0850 83 83 210/ 17/ 19 1018.4 5/ 7 2/10 41 SE CHARLESTON 0850 81 81 230/ 14/ 16 1015.9 4/ 9 2/ 9 $$

USA.gov is the U.S. government's official web portal to all federal, state and local government web resources and services.